Weather History for K0E0 - June, 2013

Change the Weather History Date:

Friday, June 28, 2013

  Actual Average (KABQ) Record (KABQ)
Temperature  
Mean Temperature 78 °F 78 °F  
Max Temperature 91 °F 91 °F 105 °F (1974)
Min Temperature 65 °F 65 °F 49 °F (1918)
Degree Days  
Heating Degree Days 0 0  
Month to date heating degree days 0  
Since 1 June heating degree days 0  
Since 1 July heating degree days 4175  
Cooling Degree Days 13 13  
Month to date cooling degree days 275  
Year to date cooling degree days 373  
Since 1 June cooling degree days 275  
Growing Degree Days 28 (Base 50)    
Moisture  
Dew Point 41 °F    
Average Humidity 30    
Maximum Humidity 63    
Minimum Humidity 14    
Precipitation  
Precipitation 0.00 in 0.03 in 0.69 in (2010)
Month to date precipitation 0.59  
Year to date precipitation 3.13  
Snow  
Snow 0.00 in - - ()
Month to date snowfall  
Since 1 June snowfall  
Since 1 July snowfall  
Snow Depth -    
Sea Level Pressure  
Sea Level Pressure 30.35 in    
Wind  
Wind Speed 10 mph (East)    
Max Wind Speed 30 mph    
Max Gust Speed 51 mph    
Visibility 10 miles    
Events Rain , Thunderstorm    
T = Trace of Precipitation, MM = Missing Value Source: NWS Daily Summary

Daily Weather History Graph

Daily Weather History Graph

Search for Another Location

Airport or City:

Trip Planner

Search our weather history database for the weather conditions in past years. The results will help you decide how hot, cold, wet, or windy it might be!

Date:

Astronomy

Jun. 28, 2013 Rise Set
Actual Time 5:52 AM MDT 8:22 PM MDT
Civil Twilight 5:23 AM MDT 8:51 PM MDT
Nautical Twilight 4:46 AM MDT 9:28 PM MDT
Astronomical Twilight 4:05 AM MDT 10:08 PM MDT
Moon No Moon Rise 11:48 AM MDT (6/28)
Length of Visible Light 15h 28m
Length of Day
14h 29m
Waning Gibbous, 65% of the Moon is Illuminated
Jun 28
Waning Gibbous
Jun 29
Last Quarter
Jul 8
New
Jul 15
First Quarter
Jul 22
Full

Hourly Weather History & Observations

Time (MDT) Temp. Dew Point Humidity Pressure Visibility Wind Dir Wind Speed Gust Speed Precip Events Conditions
12:35 AM 75.0 °F 30.2 °F 19% 30.30 in 10.0 mi East 9.2 mph - N/A   Clear
12:55 AM 72.9 °F 30.4 °F 21% 30.29 in 10.0 mi East 6.9 mph - N/A   Clear
1:15 AM 73.4 °F 30.9 °F 21% 30.29 in 10.0 mi East 4.6 mph - N/A   Clear
1:35 AM 69.6 °F 30.2 °F 23% 30.29 in 10.0 mi NNE 3.5 mph - N/A   Clear
1:55 AM 68.5 °F 30.6 °F 24% 30.31 in 10.0 mi WNW 9.2 mph - N/A   Clear
2:15 AM 69.8 °F 30.9 °F 24% 30.31 in 10.0 mi NW 8.1 mph - N/A   Clear
2:35 AM 71.6 °F 32.0 °F 23% 30.31 in 10.0 mi NNE 3.5 mph - N/A   Clear
2:55 AM 71.8 °F 33.4 °F 24% 30.31 in 10.0 mi ENE 15.0 mph 19.6 mph N/A   Clear
3:15 AM 73.8 °F 38.1 °F 27% 30.31 in 10.0 mi ENE 13.8 mph - N/A   Clear
3:35 AM 73.8 °F 40.5 °F 30% 30.32 in 10.0 mi ENE 20.7 mph 25.3 mph N/A   Clear
3:55 AM 73.6 °F 41.5 °F 32% 30.33 in 10.0 mi ENE 20.7 mph 27.6 mph N/A   Clear
4:15 AM 72.5 °F 41.7 °F 33% 30.35 in 10.0 mi East 17.3 mph 26.5 mph N/A   Clear
4:35 AM 70.7 °F 39.4 °F 32% 30.37 in 10.0 mi ESE 12.7 mph - N/A   Clear
4:55 AM 69.3 °F 46.6 °F 44% 30.40 in 10.0 mi SE 10.4 mph - N/A   Clear
5:15 AM 68.0 °F 48.6 °F 50% 30.41 in 10.0 mi East 11.5 mph - N/A   Clear
5:35 AM 67.1 °F 49.1 °F 52% 30.41 in 10.0 mi East 9.2 mph - N/A   Clear
6:55 AM 65.3 °F 48.6 °F 55% 30.43 in 10.0 mi NE 6.9 mph - N/A   Clear
7:15 AM 68.7 °F 49.1 °F 50% 30.43 in 10.0 mi ENE 9.2 mph - N/A   Clear
7:35 AM 69.4 °F 49.1 °F 48% 30.43 in 10.0 mi ENE 6.9 mph - N/A   Clear
7:55 AM 70.9 °F 48.9 °F 46% 30.43 in 10.0 mi ENE 6.9 mph - N/A   Clear
8:15 AM 73.2 °F 47.5 °F 40% 30.43 in 10.0 mi East 8.1 mph - N/A   Clear
8:35 AM 74.7 °F 47.1 °F 38% 30.43 in 10.0 mi ESE 8.1 mph - N/A   Clear
8:55 AM 75.9 °F 46.2 °F 35% 30.43 in 10.0 mi SE 10.4 mph 16.1 mph N/A   Clear
9:15 AM 76.8 °F 45.7 °F 33% 30.43 in 10.0 mi SE 12.7 mph - N/A   Clear
9:35 AM 78.1 °F 45.0 °F 31% 30.41 in 10.0 mi SSE 12.7 mph 16.1 mph N/A   Clear
9:55 AM 79.0 °F 45.1 °F 30% 30.41 in 10.0 mi South 9.2 mph 19.6 mph N/A   Clear
10:15 AM 80.1 °F 44.2 °F 28% 30.41 in 10.0 mi SSE 8.1 mph - N/A   Clear
10:35 AM 81.3 °F 44.8 °F 28% 30.41 in 10.0 mi SSE 10.4 mph 17.3 mph N/A   Clear
10:55 AM 81.5 °F 44.2 °F 27% 30.41 in 10.0 mi South 6.9 mph - N/A   Clear
11:15 AM 83.7 °F 43.3 °F 24% 30.40 in 10.0 mi South 6.9 mph - N/A   Clear
11:35 AM 85.5 °F 43.0 °F 22% 30.40 in 10.0 mi SSW 9.2 mph - N/A   Clear
11:55 AM 86.0 °F 41.7 °F 21% 30.39 in 10.0 mi SSW 9.2 mph 16.1 mph N/A   Clear
12:15 PM 87.8 °F 41.4 °F 20% 30.38 in 10.0 mi SSE 10.4 mph - N/A   Clear
12:35 PM 87.8 °F 39.4 °F 18% 30.37 in 10.0 mi SW 4.6 mph - N/A   Clear
12:55 PM 87.3 °F 39.0 °F 18% 30.37 in 10.0 mi South 8.1 mph - N/A   Clear
1:15 PM 87.3 °F 38.3 °F 18% 30.36 in 10.0 mi NNE 4.6 mph - N/A   Clear
1:35 PM 87.1 °F 37.9 °F 18% 30.35 in 10.0 mi NE 6.9 mph - N/A   Clear
1:55 PM 86.4 °F 37.2 °F 17% 30.35 in 10.0 mi NNE 5.8 mph - N/A   Clear
2:15 PM 85.6 °F 37.4 °F 18% 30.35 in 10.0 mi NE 9.2 mph - N/A   Scattered Clouds
2:35 PM 84.6 °F 36.0 °F 18% 30.35 in 10.0 mi NW 3.5 mph 29.9 mph N/A Rain Rain
2:55 PM 88.0 °F 36.7 °F 16% 30.34 in 10.0 mi ESE 17.3 mph 23.0 mph N/A   Clear
3:15 PM 89.2 °F 36.9 °F 16% 30.32 in 10.0 mi SSE 6.9 mph 17.3 mph N/A   Clear
3:35 PM 90.1 °F 36.9 °F 15% 30.31 in 10.0 mi SSE 5.8 mph - N/A   Clear
3:55 PM 91.6 °F 35.8 °F 14% 30.31 in 10.0 mi South 5.8 mph - N/A   Clear
4:15 PM 91.2 °F 37.8 °F 15% 30.30 in 10.0 mi SW 9.2 mph 16.1 mph N/A   Clear
4:35 PM 88.7 °F 39.9 °F 18% 30.29 in 10.0 mi SW 18.4 mph 23.0 mph N/A   Clear
4:55 PM 88.9 °F 40.1 °F 18% 30.29 in 10.0 mi SSW 17.3 mph - N/A   Clear
5:15 PM 88.3 °F 38.8 °F 17% 30.29 in 10.0 mi SW 16.1 mph - N/A   Clear
5:35 PM 86.5 °F 38.1 °F 18% 30.29 in 10.0 mi SSW 15.0 mph 19.6 mph N/A   Clear
5:55 PM 86.5 °F 39.6 °F 19% 30.29 in 10.0 mi SW 17.3 mph 21.9 mph N/A   Clear
6:15 PM 84.9 °F 39.4 °F 20% 30.34 in 1.0 mi NW 19.6 mph 31.1 mph N/A Thunderstorm Unknown
6:35 PM 75.6 °F 45.9 °F 35% 30.34 in 1.5 mi North 29.9 mph 50.6 mph N/A Rain , Thunderstorm Light Thunderstorms and Rain
6:55 PM 67.5 °F 54.5 °F 63% 30.34 in 10.0 mi NE 13.8 mph - N/A   Scattered Clouds
7:15 PM 73.4 °F 42.1 °F 32% 30.33 in 10.0 mi ENE 26.5 mph 32.2 mph N/A   Scattered Clouds
7:35 PM 72.5 °F 45.1 °F 37% 30.32 in 10.0 mi NNE 26.5 mph 33.4 mph N/A   Clear
7:55 PM 72.7 °F 43.9 °F 36% 30.32 in 10.0 mi North 17.3 mph - N/A   Clear
8:15 PM 71.2 °F 45.9 °F 40% 30.32 in 10.0 mi North 12.7 mph - N/A   Clear
8:35 PM 70.9 °F 45.5 °F 40% 30.32 in 10.0 mi North 11.5 mph - N/A   Scattered Clouds
8:55 PM 71.2 °F 45.5 °F 40% 30.32 in 10.0 mi North 9.2 mph - N/A   Scattered Clouds
9:15 PM 72.3 °F 41.9 °F 33% 30.34 in 10.0 mi WNW 12.7 mph - N/A   Clear
9:35 PM 74.3 °F 41.5 °F 31% 30.32 in 10.0 mi WNW 10.4 mph - N/A   Scattered Clouds
9:55 PM 74.8 °F 40.3 °F 29% 30.33 in 10.0 mi West 9.2 mph - N/A   Clear
10:15 PM 74.7 °F 39.2 °F 28% 30.32 in 10.0 mi WSW 6.9 mph - N/A   Clear
10:35 PM 72.5 °F 40.1 °F 31% 30.33 in 10.0 mi NE 10.4 mph - N/A   Clear
10:55 PM 70.3 °F 45.0 °F 40% 30.35 in 10.0 mi ESE 11.5 mph 20.7 mph N/A   Scattered Clouds
11:15 PM 68.7 °F 47.8 °F 47% 30.37 in 10.0 mi ENE 6.9 mph - N/A   Scattered Clouds
11:35 PM 67.6 °F 47.3 °F 48% 30.36 in 10.0 mi ENE 5.8 mph - N/A   Clear
11:55 PM 66.6 °F 47.8 °F 51% 30.37 in 10.0 mi NNE 4.6 mph - N/A   Clear